If you wish to contribute or participate in the discussions about articles you are invited to join SKYbrary as a registered user

 Actions

Amborovy Airport

From SKYbrary Wiki

FMNM
Airport
ICAO: FMNM – IATA: MJN
Summary
Name Amborovy Airport
Region Africa
Territory Madagascar MG.gif
Location Amborovy, Boeny
Serving Mahajanga
Elevation 26.518 m
87 ft26.518 m
Coordinates 15° 40' 0.98" S, 46° 21' 6.01" E
Runways
Designator Length Width Surface ROPS
14/32 2200 m7,217.848 ft
45 m147.638 ft
ASP /


METAR
Observation FMNM 261100Z 33011KT 300V360 9999 FEW023 33/21 Q1010 NOSIG
Station Majunga
Date/Time 26 November 2020 11:00:00
Wind direction 330°
Wind speed 11 kts
Lowest cloud amount few clouds
Temperature 33°C
Dew point 21°C
Humidity 49%
QNH 1010 hPa
Weather condition n/a

Amborovy Airport, also known as Philibert Tsiranana Airport, is an airport in Mahajanga, Madagascar.

Climatology

Tropical savanna climate (Köppen climate classification Aw)

Maps

Terrain

Loading map...

Airport Layout

Loading map...


Accidents & Serious Incidents at or in vicinity of FMNM

None on SKYbrary